[[[{"header":{"parameterUnit":"kt","parameterCategory":2,"dx":1,"dy":1,"la1":30.253999710083008,"la2":30.299108505249023,"lo1":-89.0895004272461,"lo2":-89.04439544677734,"nx":28,"ny":28,"refTime":"2022-09-30T21:00:00:Z","depth":0,"parameterNumber":1,"parameterNumberName":"U-component_of_WINDS"},"data":[-2.7851,-2.8109,-2.8122,-2.8423,-2.8486,-2.8696,-2.8776,-2.888,-2.8967,-2.922,-2.9369,-2.941,-2.9504,-2.9687,-2.985,-2.9865,-2.9937,-3.0018,-3.0024,-2.9642,-2.959,-2.9541,-2.9483,-3.0031,-3.0032,-3.0421,-3.0424,-3.0427,-2.7573,-2.7638,-2.7799,-2.7966,-2.8106,-2.8035,-2.8162,-2.8286,-2.8475,-2.8583,-2.8729,-2.8954,-2.9133,-2.9201,-2.9378,-2.9502,-2.9482,-2.955,-2.9545,-2.9563,-2.9152,-2.9089,-2.9564,-2.9563,-2.9563,-2.9563,-2.9563,-2.9563,-2.7072,-2.7224,-2.7332,-2.7508,-2.7595,-2.7707,-2.7857,-2.7902,-2.8062,-2.8245,-2.8229,-2.8446,-2.8558,-2.8777,-2.8854,-2.9025,-2.8953,-2.9033,-2.9055,-2.9078,-2.9102,-2.8551,-2.9054,-2.9053,-2.9052,-2.905,-2.905,0,-2.671,-2.6711,-2.6866,-2.7026,-2.7155,-2.7281,-2.7399,-2.7491,-2.7498,-2.763,-2.7823,-2.7937,-2.8163,-2.8349,-2.8516,-2.8581,-2.8528,-2.852,-2.8577,-2.8594,-2.8586,-2.8601,-2.7939,-2.8508,-2.8503,-2.85,-2.8497,-2.8495,-2.6213,-2.6387,-2.6505,-2.6612,-2.6679,-2.6853,-2.696,-2.6951,-2.7066,-2.7211,-2.7348,-2.7531,-2.7678,-2.7987,-2.8042,-2.8212,-2.819,-2.8406,-2.8215,-2.8221,-2.8203,-2.8196,-2.8217,-2.8446,-2.8453,-2.8458,-2.8462,0,-2.5933,-2.5951,-2.6226,-2.6325,-2.6355,-2.654,-2.6627,-2.6779,-2.6806,-2.7022,-2.7071,-2.7117,-2.7307,-2.7326,-2.7548,-2.7553,-2.7867,-2.7835,-2.7829,-2.7826,-2.8028,-2.8012,-2.8665,-2.8753,-2.8175,-2.818,-2.8185,0,-2.5519,-2.5748,-2.5764,-2.5923,-2.6178,-2.6163,-2.6417,-2.6465,-2.6559,-2.6728,-2.6665,-2.6826,-2.6824,-2.6989,-2.6996,-2.7254,-2.7293,-2.7316,-2.7317,-2.7327,-2.7325,-2.7395,-2.7372,-2.7301,-2.7298,-2.7295,-2.7292,0,-2.5085,-2.5359,-2.5614,-2.5681,-2.581,-2.5932,-2.5992,-2.6096,-2.6201,-2.6339,-2.6409,-2.6571,-2.6663,-2.6791,-2.68,-2.6671,-2.7113,-2.6937,-2.7137,-2.7138,-2.7241,-2.7236,-2.7801,-2.7288,-2.7287,-2.7286,-2.7285,0,-2.4757,-2.4893,-2.5259,-2.5366,-2.5439,-2.5607,-2.5766,-2.5913,-2.6028,-2.6043,-2.6152,-2.6115,-2.6335,-2.6161,-2.6468,-2.6298,-2.6392,-2.6431,-2.6446,-2.6475,-2.6281,-2.6608,-2.7137,-2.7197,-2.6491,-2.6485,-2.6479,0,-2.4259,-2.4631,-2.462,-2.4968,-2.5143,-2.5062,-2.5248,-2.5351,-2.5386,-2.5542,-2.558,-2.5758,-2.5631,-2.569,-2.5838,-2.5888,-2.6109,-2.5857,-2.6093,-2.6102,-2.6073,-2.6558,-2.6636,-2.7016,-2.6394,-2.6403,-2.6409,0,-2.3876,-2.4027,-2.409,-2.4167,-2.4296,-2.4442,-2.4655,-2.4826,-2.4932,-2.5051,-2.5234,-2.548,-2.5397,-2.5495,-2.5482,-2.5636,-2.5959,-2.5526,-2.5529,-2.561,-2.635,-2.6424,-2.6488,-2.5916,-2.5927,-2.5935,-2.6342,0,-2.3389,-2.3575,-2.3742,-2.3909,-2.4022,-2.4239,-2.4256,-2.4374,-2.4348,-2.438,-2.4645,-2.4735,-2.4913,-2.4986,-2.4964,-2.5307,-2.5255,-2.5163,-2.5001,-2.5315,-2.5451,-2.5506,-2.4797,-2.4793,-2.4789,-2.4785,0,0,-2.2913,-2.3179,-2.316,-2.3364,-2.3461,-2.3373,-2.3604,-2.3686,-2.3858,-2.3928,-2.3835,-2.4199,-2.4276,-2.4598,-2.4697,-2.4766,-2.4832,-2.4721,-2.5164,-2.5206,-2.5245,-2.5389,-2.5445,-2.4778,-2.4777,-2.4776,-2.4774,0,-2.274,-2.2812,-2.3037,-2.3121,-2.3245,-2.3266,-2.332,-2.3429,-2.3461,-2.3717,-2.3646,-2.3807,-2.4096,-2.419,-2.4276,-2.468,-2.4621,-2.4731,-2.4946,-2.5123,-2.517,-2.5212,-2.5363,-2.5417,-2.4765,-2.4765,-2.4766,0,-2.2371,-2.2448,-2.2557,-2.2765,-2.2846,-2.3028,-2.2859,-2.3056,-2.3191,-2.3089,-2.3347,-2.3399,-2.3525,-2.3823,-2.3957,-2.3878,-2.4429,-2.4255,-2.4281,-2.4299,-2.4472,-2.4528,-2.4579,-2.3915,-2.3911,-2.3909,0,0,-2.222,-2.2391,-2.2472,-2.273,-2.2785,-2.282,-2.2917,-2.2902,-2.3013,-2.3059,-2.3126,-2.3239,-2.3408,-2.3519,-2.3678,-2.4001,-2.4031,-2.415,-2.419,-2.4223,-2.4258,-2.444,-2.4496,-2.3897,-2.3897,-2.3897,0,0,-2.2149,-2.2253,-2.2206,-2.2506,-2.2613,-2.2713,-2.2872,-2.2819,-2.2963,-2.2941,-2.2928,-2.2957,-2.3235,-2.3291,-2.3135,-2.3622,-2.346,-2.3498,-2.3577,-2.3628,-2.3668,-2.3652,-2.2979,0,0,0,0,0,-2.1981,-2.2239,-2.2196,-2.2248,-2.2512,-2.2736,-2.277,-2.2763,-2.2649,-2.2775,-2.2823,-2.275,-2.3205,-2.3066,-2.312,-2.3297,-2.3749,-2.3776,-2.38,-2.3979,-2.4032,-2.4077,0,0,0,0,0,0,-2.2002,-2.2066,-2.2189,-2.2299,-2.2358,-2.2726,-2.2532,-2.2537,-2.2635,-2.2618,-2.2743,-2.2754,-2.2755,-2.3038,-2.3087,-2.3255,-2.2963,-2.376,-2.3782,-2.3802,-2.3997,-2.404,-2.4078,0,0,0,0,0,-2.2018,-2.207,-2.2494,-2.2296,-2.2347,-2.24,-2.2522,-2.2525,-2.2601,-2.2676,-2.2684,-2.2587,-2.2759,-2.2801,-2.3067,-2.3233,-2.2929,-2.2947,-2.3774,-2.3792,-2.3807,-2.4018,0,0,0,0,0,0,-2.203,-2.2076,-2.2504,-2.252,-2.2197,-2.2379,-2.2407,-2.2515,-2.2653,-2.2664,-2.2518,-2.2503,-2.2766,-2.2797,-2.2829,-2.3226,-2.2901,-2.292,-2.2931,-2.3787,-2.3801,-2.3813,0,0,0,0,0,0,-2.2048,-2.209,-2.2512,-2.2388,-2.2389,-2.236,-2.2385,-2.261,-2.2656,-2.2487,-2.2478,-2.251,-2.2719,-2.2796,-2.282,-2.3171,-2.288,-2.2898,-2.291,-2.2918,-2.3799,-2.3809,0,0,0,0,0,0,-2.2065,-2.2101,-2.2384,-2.2385,-2.2386,-2.256,-2.2559,-2.2831,-2.2546,-2.2483,-2.252,-2.2508,-2.2721,-2.2745,-2.2815,-2.3156,-2.3167,-2.288,-2.2892,-2.2901,-2.2907,0,0,0,0,0,0,0,-2.2079,-2.184,-2.2411,-2.2383,-2.2383,-2.2664,-2.2668,-2.2672,-2.2543,-2.2533,-2.2523,-2.2513,-2.2778,-2.2797,-2.2817,-2.3143,0,0,-2.2878,-2.2887,0,0,0,0,0,0,0,0,-2.1825,-2.1836,-2.2412,-2.2415,-2.2418,-2.2665,-2.2668,-2.2672,-2.2541,-2.2533,-2.2525,-2.2517,-2.2783,-2.2799,-2.2815,0,0,0,0,0,0,0,0,0,0,0,0,0,0,0,-2.2412,-2.2415,0,-2.2665,-2.2668,-2.2671,-2.254,-2.2533,-2.2527,-2.252,-2.2787,-2.28,-2.2814,0,0,0,0,0,0,0,0,0,0,0,0,0,0,0,0,0,0,0,0,0,0,0,0,0,0,0,0,0,0,0,0,0,0,0,0,0,0,0,0,0,0,0,0,0,0,0,0,0,0,0,0,0,0,0,0,0,0,0,0,0,0,0,0,0,0,0,0,0]}],[{"header":{"parameterUnit":"kt","parameterCategory":2,"dx":1,"dy":1,"la1":30.253999710083008,"la2":30.299108505249023,"lo1":-89.0895004272461,"lo2":-89.04439544677734,"nx":28,"ny":28,"refTime":"2022-09-30T21:00:00:Z","depth":0,"parameterNumber":2,"parameterNumberName":"V-component_of_WINDS"},"data":[-8.0325,-8.0527,-8.054,-8.0775,-8.0827,-8.0989,-8.105,-8.1131,-8.1198,-8.139,-8.1502,-8.1533,-8.1602,-8.1737,-8.1857,-8.1868,-8.1918,-8.198,-8.1982,-8.1694,-8.1654,-8.1617,-8.1571,-8.1991,-8.1991,-8.2278,-8.2281,-8.2283,-8.0113,-8.0167,-8.0295,-8.0428,-8.0538,-8.0486,-8.0586,-8.0681,-8.0826,-8.091,-8.1021,-8.119,-8.1324,-8.1372,-8.1502,-8.1594,-8.1575,-8.1628,-8.1621,-8.1633,-8.1325,-8.1277,-8.1641,-8.1641,-8.1641,-8.1641,-8.164,-8.164,-7.973,-7.9851,-7.9939,-8.0078,-8.0148,-8.0237,-8.0353,-8.0389,-8.0513,-8.0653,-8.0642,-8.0805,-8.0889,-8.105,-8.1106,-8.1232,-8.1175,-8.1235,-8.1251,-8.1266,-8.1282,-8.0867,-8.1254,-8.1253,-8.1252,-8.1251,-8.1251,0,-7.9454,-7.9457,-7.9581,-7.9709,-7.9811,-7.9911,-8.0004,-8.0076,-8.0082,-8.0184,-8.0332,-8.0418,-8.0588,-8.0726,-8.0849,-8.0895,-8.0849,-8.0845,-8.0886,-8.0895,-8.0887,-8.0894,-8.0392,-8.0833,-8.083,-8.0827,-8.0825,-8.0824,-7.9069,-7.9208,-7.9306,-7.9391,-7.9445,-7.9582,-7.9666,-7.9661,-7.975,-7.9862,-7.9967,-8.0106,-8.0217,-8.0449,-8.0486,-8.0611,-8.059,-8.0757,-8.0608,-8.0611,-8.0593,-8.0585,-8.0599,-8.0786,-8.0791,-8.0795,-8.0798,0,-7.8851,-7.8871,-7.9089,-7.9172,-7.9197,-7.9341,-7.941,-7.9529,-7.955,-7.9716,-7.9754,-7.9787,-7.993,-7.9941,-8.0106,-8.0106,-8.0342,-8.0317,-8.0313,-8.0309,-8.046,-8.0446,-8.0948,-8.1013,-8.0577,-8.0582,-8.0585,0,-7.853,-7.8712,-7.8731,-7.8857,-7.9058,-7.9049,-7.9247,-7.9285,-7.9358,-7.9488,-7.9438,-7.9561,-7.9555,-7.9679,-7.968,-7.9874,-7.9904,-7.9916,-7.9914,-7.9921,-7.992,-7.9967,-7.9947,-7.9904,-7.9902,-7.9899,-7.9897,0,-7.8187,-7.841,-7.8614,-7.8668,-7.8773,-7.8868,-7.8916,-7.8997,-7.9078,-7.9185,-7.9237,-7.9361,-7.943,-7.9525,-7.9526,-7.9425,-7.9763,-7.9624,-7.9775,-7.9776,-7.9849,-7.9845,-8.0287,-7.9894,-7.9894,-7.9893,-7.9892,0,-7.7931,-7.8042,-7.8335,-7.8421,-7.848,-7.8613,-7.8737,-7.8854,-7.8942,-7.8952,-7.9035,-7.9003,-7.9173,-7.9034,-7.9268,-7.9136,-7.9205,-7.9232,-7.9243,-7.9259,-7.9103,-7.9352,-7.9772,-7.9816,-7.9273,-7.9268,-7.9264,0,-7.7533,-7.7834,-7.7828,-7.8106,-7.8247,-7.8182,-7.833,-7.841,-7.8436,-7.8556,-7.8583,-7.872,-7.8619,-7.8663,-7.8778,-7.881,-7.8982,-7.8787,-7.8959,-7.8965,-7.8939,-7.9325,-7.9386,-7.9679,-7.9198,-7.9205,-7.921,0,-7.7227,-7.7354,-7.7404,-7.7465,-7.7571,-7.7687,-7.7857,-7.7992,-7.8073,-7.8168,-7.8309,-7.8502,-7.8433,-7.8507,-7.8492,-7.8611,-7.8865,-7.8521,-7.8523,-7.8583,-7.9165,-7.9222,-7.9271,-7.8829,-7.8837,-7.8844,-7.9157,0,-7.6835,-7.6988,-7.7124,-7.7259,-7.7351,-7.7525,-7.7538,-7.7632,-7.761,-7.7633,-7.7841,-7.7908,-7.8043,-7.8101,-7.808,-7.8349,-7.8305,-7.823,-7.8095,-7.8349,-7.8452,-7.8494,-7.794,-7.7936,-7.7933,-7.793,0,0,-7.6449,-7.6668,-7.6657,-7.6822,-7.6899,-7.6829,-7.7014,-7.7079,-7.7214,-7.7268,-7.7193,-7.7475,-7.7532,-7.7782,-7.7862,-7.7917,-7.7965,-7.7876,-7.8228,-7.8261,-7.8292,-7.8402,-7.8446,-7.7924,-7.7923,-7.7922,-7.7921,0,-7.6309,-7.6374,-7.6558,-7.6626,-7.6726,-7.6742,-7.6786,-7.6873,-7.6896,-7.7099,-7.7036,-7.7161,-7.7387,-7.7456,-7.752,-7.7847,-7.7791,-7.7887,-7.8059,-7.8194,-7.8232,-7.8265,-7.8381,-7.8423,-7.7913,-7.7913,-7.7913,0,-7.601,-7.6075,-7.6165,-7.6337,-7.6402,-7.6547,-7.641,-7.6569,-7.6676,-7.6588,-7.6791,-7.6829,-7.6922,-7.7157,-7.7263,-7.7197,-7.7632,-7.7496,-7.7517,-7.7529,-7.766,-7.7705,-7.7746,-7.7216,-7.7213,-7.7211,0,0,-7.5887,-7.6029,-7.6096,-7.6308,-7.6353,-7.6379,-7.6457,-7.6443,-7.653,-7.6565,-7.6613,-7.6698,-7.6828,-7.6914,-7.7037,-7.7293,-7.7311,-7.741,-7.7443,-7.747,-7.7496,-7.7634,-7.7679,-7.7202,-7.7202,-7.7201,0,0,-7.5827,-7.5914,-7.5877,-7.6125,-7.6211,-7.629,-7.6418,-7.6373,-7.6486,-7.6467,-7.6448,-7.647,-7.669,-7.6729,-7.6604,-7.6988,-7.6855,-7.6885,-7.6955,-7.6996,-7.7029,-7.7014,-7.647,0,0,0,0,0,-7.5691,-7.5903,-7.5869,-7.5913,-7.6128,-7.6309,-7.6336,-7.6327,-7.6233,-7.6335,-7.6368,-7.6304,-7.6658,-7.6547,-7.6589,-7.6729,-7.7082,-7.7103,-7.7123,-7.7273,-7.7317,-7.7353,0,0,0,0,0,0,-7.5708,-7.5761,-7.5863,-7.5951,-7.5999,-7.6301,-7.614,-7.6143,-7.6222,-7.6207,-7.6299,-7.6307,-7.6301,-7.6524,-7.6562,-7.6696,-7.6457,-7.709,-7.7108,-7.7125,-7.7288,-7.7324,-7.7354,0,0,0,0,0,-7.5721,-7.5764,-7.6113,-7.5948,-7.599,-7.6029,-7.6132,-7.6133,-7.6194,-7.6246,-7.6251,-7.618,-7.6305,-7.6336,-7.6547,-7.6678,-7.6431,-7.6445,-7.7102,-7.7116,-7.7129,-7.7306,0,0,0,0,0,0,-7.5731,-7.5766,-7.6121,-7.6133,-7.5867,-7.6012,-7.6034,-7.6125,-7.6227,-7.6234,-7.6124,-7.6111,-7.631,-7.6334,-7.6358,-7.6673,-7.6409,-7.6424,-7.6433,-7.7113,-7.7124,-7.7134,0,0,0,0,0,0,-7.5743,-7.5777,-7.6127,-7.6026,-7.6026,-7.5996,-7.6017,-7.6193,-7.6229,-7.6099,-7.6092,-7.6117,-7.6272,-7.6333,-7.6352,-7.6628,-7.6393,-7.6407,-7.6416,-7.6422,-7.7122,-7.7131,0,0,0,0,0,0,-7.5757,-7.5786,-7.6022,-7.6023,-7.6023,-7.6161,-7.6152,-7.6373,-7.6144,-7.6096,-7.6123,-7.6114,-7.6274,-7.6292,-7.6348,-7.6617,-7.6625,-7.6393,-7.6403,-7.6409,-7.6414,0,0,0,0,0,0,0,-7.5769,-7.5574,-7.6048,-7.6021,-7.602,-7.6248,-7.6251,-7.6255,-7.6142,-7.6134,-7.6126,-7.6118,-7.6313,-7.6329,-7.6344,-7.6607,0,0,-7.6392,-7.6399,0,0,0,0,0,0,0,0,-7.5562,-7.5571,-7.6049,-7.6051,-7.6054,-7.6248,-7.6251,-7.6254,-7.6141,-7.6134,-7.6127,-7.6121,-7.6318,-7.633,-7.6342,0,0,0,0,0,0,0,0,0,0,0,0,0,0,0,-7.6049,-7.6051,0,-7.6249,-7.6251,-7.6253,-7.614,-7.6134,-7.6129,-7.6124,-7.6321,-7.6331,-7.6341,0,0,0,0,0,0,0,0,0,0,0,0,0,0,0,0,0,0,0,0,0,0,0,0,0,0,0,0,0,0,0,0,0,0,0,0,0,0,0,0,0,0,0,0,0,0,0,0,0,0,0,0,0,0,0,0,0,0,0,0,0,0,0,0,0,0,0,0,0]}]]]